Starlink 5386

operational
NORAD ID: 54834 Int'l Des: 2022-177 Owner: SPXS Country: US Constellation: starlink
LEOCIRCULAR

Über Starlink 5386

Beschreibung wird geladen...

Live-Position

3D-Globus wird geladen...

Nächste Überflüge

Höhenverlauf

Altitude vs Time

uPlot chart will show altitude changes over time

Zweizeiliger Elementsatz

1 54834U 22177Q 25302.50552440 -.00000274 00000-0 -52013-5 0 9991
2 54834 43.0033 125.9900 0001282 264.9771 95.0926 15.02536872157232
Epoch: 29. Okt. 2025 • Age: 15 hours

Aktueller Status

Höhe 564.6 km
Geschwindigkeit 7.58 km/s
Subsatellitenpunkt -24.75°S, 118.58°W
Startdatum 28. Dez. 2022
Alter 2.8 years
Typ internet

Technische Details

Klassifizierung Payload
Masse 305.00 kg
Trockenmasse 290.00 kg
Gesamtmasse 305.00 kg
Länge 0.20 m
Durchmesser 2.80 m
Spannweite 9.00 m
Form Box + pan
Hersteller SPXS
Bus-Typ Starlink
Phasenstatus In Orbit
Besitzer/Staat SPXS/US

Große Konstellationen

Loading constellations...